| time (UTC) | temp F | wind direction | speed MPH | gust MPH | rain 1hr in | rain 24hr in | rain mn in | humidity % | barometer mb |
| 20260505230506 | 69 | 196 | 0.0 | 0.0 | 0.00 | 0.10 | 0.10 | 71 | 962.6 |
| 20260505230006 | 69 | 196 | 0.0 | 1.0 | 0.00 | 0.10 | 0.10 | 69 | 962.7 |
| 20260505225508 | 69 | 196 | 0.0 | 2.0 | 0.00 | 0.10 | 0.10 | 68 | 962.6 |
| 20260505225226 | 69 | 246 | 0.0 | 2.0 | 0.00 | 0.10 | 0.10 | 68 | 962.7 |
| 20260505224504 | 69 | 262 | 0.0 | 2.0 | 0.00 | 0.10 | 0.10 | 69 | 962.7 |
| 20260505224006 | 69 | 344 | 0.0 | 4.0 | 0.00 | 0.10 | 0.10 | 70 | 962.7 |
| 20260505223506 | 69 | 288 | 0.0 | 4.0 | 0.00 | 0.10 | 0.10 | 69 | 962.7 |
| 20260505223006 | 69 | 285 | 0.0 | 0.0 | 0.00 | 0.10 | 0.10 | 72 | 962.9 |
| 20260505222724 | 69 | 282 | 0.0 | 0.0 | 0.00 | 0.10 | 0.10 | 74 | 962.9 |
| 20260505222005 | 69 | 19 | 0.0 | 0.0 | 0.00 | 0.10 | 0.10 | 74 | 962.8 |
| 20260505221723 | 69 | 268 | 0.0 | 0.0 | 0.00 | 0.10 | 0.10 | 76 | 962.9 |
| 20260505221002 | 69 | 252 | 0.0 | 0.0 | 0.00 | 0.10 | 0.10 | 79 | 962.9 |
| 20260505220504 | 69 | 252 | 0.0 | 0.0 | 0.00 | 0.10 | 0.10 | 78 | 962.9 |
| 20260505215958 | 69 | 252 | 0.0 | 0.0 | 0.00 | 0.10 | 0.10 | 80 | 962.8 |
| 20260505215453 | 69 | 252 | 0.0 | 0.0 | 0.00 | 0.10 | 0.10 | 83 | 962.8 |
| 20260505214950 | 68 | 252 | 0.0 | 0.0 | 0.00 | 0.10 | 0.10 | 84 | 962.8 |
| 20260505214453 | 67 | 252 | 0.0 | 0.0 | 0.00 | 0.10 | 0.10 | 83 | 962.8 |
| 20260505213953 | 67 | 252 | 0.0 | 0.0 | 0.03 | 0.10 | 0.10 | 85 | 962.9 |
| 20260505213450 | 66 | 252 | 0.0 | 0.0 | 0.04 | 0.10 | 0.10 | 85 | 962.9 |
| 20260505213214 | 66 | 252 | 0.0 | 0.0 | 0.04 | 0.10 | 0.10 | 86 | 963.1 |
| 20260505212712 | 66 | 252 | 0.0 | 0.0 | 0.04 | 0.10 | 0.10 | 87 | 963.1 |
| 20260505211948 | 66 | 252 | 0.0 | 0.0 | 0.04 | 0.10 | 0.10 | 86 | 963.0 |
| 20260505211447 | 67 | 292 | 0.0 | 0.0 | 0.04 | 0.10 | 0.10 | 84 | 962.9 |
| 20260505210947 | 67 | 292 | 0.0 | 0.0 | 0.04 | 0.10 | 0.10 | 82 | 962.8 |
| 20260505210446 | 67 | 292 | 0.0 | 1.0 | 0.04 | 0.10 | 0.10 | 81 | 962.7 |
| 20260505205948 | 67 | 292 | 0.0 | 2.0 | 0.04 | 0.10 | 0.10 | 77 | 962.8 |
| 20260505205446 | 67 | 308 | 0.0 | 2.0 | 0.04 | 0.10 | 0.10 | 78 | 962.7 |
| 20260505204945 | 67 | 83 | 1.0 | 5.0 | 0.04 | 0.10 | 0.10 | 78 | 962.6 |
| 20260505204655 | 69 | 211 | 2.0 | 8.0 | 0.04 | 0.10 | 0.10 | 71 | 962.9 |
| 20260505204134 | 74 | 286 | 1.0 | 13.0 | 0.00 | 0.06 | 0.06 | 54 | 962.6 |
| 20260505204022 | 71 | 304 | 3.0 | 13.0 | 0.01 | 0.07 | 0.08 | 63 | 962.9 |
| 20260505203155 | 74 | 286 | 0.0 | 3.0 | 0.00 | 0.06 | 0.06 | 49 | 962.3 |
| 20260505202436 | 75 | 281 | 0.0 | 3.0 | 0.00 | 0.06 | 0.06 | 50 | 962.1 |
| 20260505201936 | 75 | 281 | 1.0 | 4.0 | 0.00 | 0.06 | 0.06 | 49 | 962.1 |
| 20260505201436 | 75 | 306 | 1.0 | 4.0 | 0.00 | 0.06 | 0.06 | 49 | 962.1 |
| 20260505200936 | 75 | 287 | 1.0 | 3.0 | 0.00 | 0.06 | 0.06 | 50 | 962.2 |
| 20260505200435 | 74 | 293 | 0.0 | 3.0 | 0.00 | 0.06 | 0.06 | 50 | 962.2 |
| 20260505195934 | 74 | 301 | 0.0 | 4.0 | 0.00 | 0.06 | 0.06 | 50 | 962.3 |
| 20260505195434 | 74 | 287 | 1.0 | 6.0 | 0.00 | 0.06 | 0.06 | 51 | 962.3 |
| 20260505194935 | 74 | 289 | 1.0 | 6.0 | 0.00 | 0.06 | 0.06 | 52 | 962.4 |
| 20260505194436 | 74 | 302 | 1.0 | 9.0 | 0.00 | 0.06 | 0.06 | 53 | 962.5 |
| 20260505193934 | 73 | 285 | 1.0 | 9.0 | 0.00 | 0.06 | 0.06 | 53 | 962.5 |
| 20260505193434 | 74 | 311 | 0.0 | 5.0 | 0.00 | 0.06 | 0.06 | 52 | 962.6 |
| 20260505192935 | 74 | 313 | 1.0 | 5.0 | 0.00 | 0.06 | 0.06 | 51 | 962.7 |
| 20260505192435 | 75 | 234 | 1.0 | 6.0 | 0.00 | 0.06 | 0.06 | 46 | 962.7 |
| 20260505191932 | 75 | 15 | 1.0 | 6.0 | 0.00 | 0.06 | 0.06 | 45 | 962.6 |
| 20260505191918 | 75 | 227 | 1.0 | 6.0 | 0.00 | 0.06 | 0.06 | 45 | 962.6 |
| 20260505190930 | 76 | 292 | 2.0 | 6.0 | 0.00 | 0.06 | 0.06 | 44 | 962.5 |
| 20260505190431 | 76 | 221 | 2.0 | 6.0 | 0.00 | 0.06 | 0.06 | 45 | 962.5 |
| 20260505185930 | 76 | 214 | 2.0 | 9.0 | 0.00 | 0.06 | 0.06 | 41 | 962.5 |
| 20260505185916 | 77 | 210 | 2.0 | 9.0 | 0.00 | 0.06 | 0.06 | 43 | 962.3 |
| 20260505184931 | 77 | 219 | 2.0 | 10.0 | 0.00 | 0.06 | 0.06 | 42 | 962.4 |
| 20260505184431 | 77 | 315 | 2.0 | 10.0 | 0.00 | 0.06 | 0.06 | 44 | 962.3 |
| 20260505183932 | 77 | 265 | 2.0 | 12.0 | 0.00 | 0.06 | 0.06 | 45 | 962.3 |
| 20260505183432 | 77 | 211 | 3.0 | 12.0 | 0.00 | 0.06 | 0.06 | 43 | 962.2 |
| 20260505182932 | 77 | 254 | 2.0 | 11.0 | 0.00 | 0.06 | 0.06 | 40 | 962.3 |
| 20260505182432 | 77 | 200 | 2.0 | 7.0 | 0.00 | 0.06 | 0.06 | 43 | 962.3 |
| 20260505181931 | 78 | 206 | 2.0 | 9.0 | 0.00 | 0.06 | 0.06 | 41 | 962.5 |
| 20260505181431 | 78 | 53 | 2.0 | 9.0 | 0.00 | 0.06 | 0.06 | 42 | 962.5 |
| 20260505180929 | 79 | 189 | 2.0 | 8.0 | 0.00 | 0.06 | 0.06 | 42 | 962.5 |
| 20260505180429 | 78 | 213 | 2.0 | 8.0 | 0.00 | 0.06 | 0.06 | 45 | 962.6 |
| 20260505180156 | 78 | 246 | 2.0 | 10.0 | 0.00 | 0.06 | 0.06 | 41 | 962.7 |
| 20260505175426 | 78 | 194 | 2.0 | 10.0 | 0.00 | 0.06 | 0.06 | 42 | 962.7 |
| 20260505174925 | 77 | 169 | 2.0 | 8.0 | 0.00 | 0.06 | 0.06 | 42 | 962.9 |
| 20260505174422 | 78 | 209 | 2.0 | 8.0 | 0.00 | 0.06 | 0.06 | 41 | 962.9 |
| 20260505173923 | 79 | 215 | 3.0 | 9.0 | 0.00 | 0.06 | 0.06 | 41 | 962.9 |
| 20260505173420 | 79 | 215 | 2.0 | 9.0 | 0.00 | 0.06 | 0.06 | 42 | 963.1 |
| 20260505172918 | 79 | 208 | 2.0 | 7.0 | 0.00 | 0.06 | 0.06 | 43 | 963.0 |
| 20260505172413 | 78 | 239 | 2.0 | 7.0 | 0.00 | 0.06 | 0.06 | 43 | 963.1 |
| 20260505172140 | 78 | 207 | 2.0 | 7.0 | 0.00 | 0.06 | 0.06 | 43 | 963.0 |
| 20260505171410 | 77 | 350 | 2.0 | 7.0 | 0.00 | 0.06 | 0.06 | 46 | 963.0 |
| 20260505170910 | 77 | 123 | 2.0 | 8.0 | 0.00 | 0.06 | 0.06 | 47 | 963.1 |
| 20260505170410 | 77 | 209 | 2.0 | 8.0 | 0.00 | 0.06 | 0.06 | 49 | 963.1 |
| 20260505165911 | 77 | 290 | 2.0 | 7.0 | 0.00 | 0.06 | 0.06 | 46 | 963.2 |
| 20260505165410 | 77 | 237 | 2.0 | 7.0 | 0.00 | 0.06 | 0.06 | 47 | 963.1 |
| 20260505164911 | 76 | 247 | 2.0 | 5.0 | 0.00 | 0.06 | 0.06 | 48 | 963.3 |
| 20260505164410 | 76 | 194 | 2.0 | 5.0 | 0.00 | 0.06 | 0.06 | 51 | 963.2 |
| 20260505163912 | 75 | 277 | 2.0 | 6.0 | 0.00 | 0.06 | 0.06 | 50 | 963.3 |
| 20260505163411 | 75 | 273 | 2.0 | 10.0 | 0.00 | 0.06 | 0.06 | 49 | 963.4 |
| 20260505162911 | 75 | 219 | 2.0 | 10.0 | 0.00 | 0.06 | 0.06 | 45 | 963.5 |
| 20260505162448 | 76 | 205 | 2.0 | 10.0 | 0.00 | 0.06 | 0.06 | 50 | 963.5 |
| 20260505162410 | 75 | 203 | 2.0 | 10.0 | 0.00 | 0.06 | 0.06 | 49 | 963.5 |
| 20260505162141 | 76 | 194 | 2.0 | 8.0 | 0.00 | 0.06 | 0.06 | 48 | 963.7 |
| 20260505161508 | 76 | 338 | 2.0 | 8.0 | 0.00 | 0.06 | 0.06 | 50 | 963.7 |
| 20260505160411 | 76 | 309 | 2.0 | 7.0 | 0.00 | 0.06 | 0.06 | 49 | 963.7 |
| 20260505153335 | 74 | 209 | 2.0 | 7.0 | 0.00 | 0.06 | 0.06 | 53 | 964.3 |
| 20260505152829 | 74 | 299 | 2.0 | 7.0 | 0.00 | 0.06 | 0.06 | 52 | 964.3 |
| 20260505152323 | 74 | 229 | 2.0 | 6.0 | 0.00 | 0.06 | 0.06 | 54 | 964.2 |
| 20260505151817 | 75 | 261 | 2.0 | 6.0 | 0.00 | 0.06 | 0.06 | 53 | 964.2 |
| 20260505151311 | 74 | 244 | 2.0 | 9.0 | 0.00 | 0.06 | 0.06 | 51 | 964.1 |
| 20260505150805 | 74 | 219 | 2.0 | 9.0 | 0.00 | 0.06 | 0.06 | 53 | 964.1 |
| 20260505150522 | 74 | 286 | 2.0 | 6.0 | 0.00 | 0.06 | 0.06 | 53 | 964.2 |
| 20260505140147 | 71 | 142 | 1.0 | 6.0 | 0.00 | 0.06 | 0.06 | 59 | 963.9 |
| 20260505130300 | 67 | 186 | 1.0 | 6.0 | 0.00 | 0.06 | 0.06 | 67 | 964.0 |
| 20260505125023 | 66 | 205 | 0.0 | 3.0 | 0.00 | 0.06 | 0.06 | 70 | 964.2 |
| 20260505124752 | 66 | 143 | 0.0 | 3.0 | 0.00 | 0.06 | 0.06 | 70 | 964.1 |
| 20260505124024 | 65 | 263 | 0.0 | 5.0 | 0.00 | 0.06 | 0.06 | 71 | 964.2 |
| 20260505123526 | 65 | 203 | 0.0 | 5.0 | 0.00 | 0.06 | 0.06 | 76 | 964.2 |
| 20260505123502 | 64 | 302 | 0.0 | 3.0 | 0.00 | 0.06 | 0.06 | 75 | 964.2 |
| 20260505122523 | 64 | 208 | 0.0 | 2.0 | 0.00 | 0.06 | 0.06 | 75 | 964.3 |
| 20260505122022 | 63 | 347 | 0.0 | 4.0 | 0.00 | 0.06 | 0.06 | 76 | 964.3 |
| 20260505121750 | 63 | 207 | 0.0 | 4.0 | 0.00 | 0.06 | 0.06 | 77 | 964.4 |
| 20260505121021 | 62 | 200 | 0.0 | 4.0 | 0.00 | 0.06 | 0.06 | 76 | 964.3 |
| 20260505120517 | 62 | 211 | 0.0 | 3.0 | 0.01 | 0.06 | 0.06 | 77 | 964.4 |
| 20260505120017 | 62 | 176 | 0.0 | 3.0 | 0.02 | 0.06 | 0.06 | 77 | 964.5 |
| 20260505115513 | 61 | 196 | 0.0 | 2.0 | 0.02 | 0.06 | 0.06 | 79 | 964.6 |
| 20260505115014 | 61 | 192 | 0.0 | 1.0 | 0.02 | 0.06 | 0.06 | 80 | 964.6 |
| 20260505114514 | 60 | 210 | 0.0 | 1.0 | 0.06 | 0.06 | 0.06 | 82 | 964.6 |
| 20260505114235 | 60 | 210 | 0.0 | 1.0 | 0.06 | 0.06 | 0.06 | 82 | 964.5 |
| 20260505113736 | 59 | 192 | 0.0 | 0.0 | 0.06 | 0.06 | 0.06 | 84 | 964.4 |
| 20260505113010 | 59 | 140 | 0.0 | 0.0 | 0.06 | 0.06 | 0.06 | 87 | 964.4 |
| 20260505112730 | 58 | 140 | 0.0 | 1.0 | 0.06 | 0.06 | 0.06 | 87 | 964.3 |
| 20260505112006 | 58 | 140 | 0.0 | 1.0 | 0.06 | 0.06 | 0.06 | 88 | 964.2 |
| 20260505111507 | 58 | 183 | 0.0 | 1.0 | 0.06 | 0.06 | 0.06 | 88 | 964.2 |
| 20260505111002 | 58 | 161 | 0.0 | 0.0 | 0.06 | 0.06 | 0.06 | 88 | 964.1 |
| 20260505110502 | 59 | 334 | 0.0 | 0.0 | 0.05 | 0.05 | 0.05 | 87 | 964.4 |
| 20260505101452 | 62 | 178 | 0.0 | 3.0 | 0.00 | 0.00 | 0.00 | 68 | 963.9 |
| 20260505100951 | 62 | 207 | 0.0 | 3.0 | 0.00 | 0.00 | 0.00 | 68 | 963.8 |
| 20260505100453 | 62 | 204 | 0.0 | 2.0 | 0.00 | 0.00 | 0.00 | 68 | 963.6 |
| 20260505100211 | 62 | 203 | 0.0 | 1.0 | 0.00 | 0.00 | 0.00 | 69 | 963.6 |
| 20260505095452 | 61 | 187 | 0.0 | 2.0 | 0.00 | 0.00 | 0.00 | 69 | 963.7 |
| 20260505094949 | 61 | 211 | 0.0 | 2.0 | 0.00 | 0.00 | 0.00 | 70 | 963.6 |
| 20260505094448 | 61 | 295 | 0.0 | 0.0 | 0.00 | 0.00 | 0.00 | 70 | 963.7 |
| 20260505093949 | 61 | 171 | 0.0 | 0.0 | 0.00 | 0.00 | 0.00 | 70 | 963.7 |
| 20260505093449 | 61 | 209 | 0.0 | 0.0 | 0.00 | 0.00 | 0.00 | 70 | 963.6 |
| 20260505092947 | 61 | 204 | 0.0 | 0.0 | 0.00 | 0.00 | 0.00 | 69 | 963.7 |
| 20260505092939 | 61 | 213 | 0.0 | 0.0 | 0.00 | 0.00 | 0.00 | 69 | 963.6 |
| 20260505092218 | 62 | 286 | 0.0 | 4.0 | 0.00 | 0.00 | 0.00 | 69 | 963.6 |
| 20260505091449 | 62 | 286 | 0.0 | 4.0 | 0.00 | 0.00 | 0.00 | 68 | 963.6 |
| 20260505090949 | 62 | 313 | 0.0 | 0.0 | 0.00 | 0.00 | 0.00 | 69 | 963.5 |
| 20260505090935 | 62 | 192 | 0.0 | 1.0 | 0.00 | 0.00 | 0.00 | 68 | 963.5 |
| 20260505090213 | 62 | 211 | 0.0 | 2.0 | 0.00 | 0.00 | 0.00 | 68 | 963.5 |
| 20260505085710 | 62 | 286 | 0.0 | 2.0 | 0.00 | 0.00 | 0.00 | 68 | 963.4 |
| 20260505084946 | 61 | 238 | 0.0 | 2.0 | 0.00 | 0.00 | 0.00 | 69 | 963.2 |
| 20260505084933 | 61 | 159 | 0.0 | 2.0 | 0.00 | 0.00 | 0.00 | 69 | 963.1 |
| 20260505084211 | 62 | 173 | 0.0 | 2.0 | 0.00 | 0.00 | 0.00 | 69 | 963.1 |
| 20260505083448 | 62 | 173 | 0.0 | 2.0 | 0.00 | 0.00 | 0.00 | 69 | 963.2 |
| 20260505082948 | 62 | 289 | 0.0 | 1.0 | 0.00 | 0.00 | 0.00 | 69 | 963.1 |
| 20260505082706 | 62 | 165 | 0.0 | 0.0 | 0.00 | 0.00 | 0.00 | 69 | 963.2 |
| 20260505081943 | 62 | 190 | 0.0 | 0.0 | 0.00 | 0.00 | 0.00 | 69 | 963.2 |
| 20260505081445 | 62 | 194 | 0.0 | 0.0 | 0.00 | 0.00 | 0.00 | 69 | 963.2 |
| 20260505080944 | 61 | 194 | 0.0 | 1.0 | 0.00 | 0.00 | 0.00 | 70 | 963.3 |
| 20260505080444 | 61 | 127 | 0.0 | 1.0 | 0.00 | 0.00 | 0.00 | 70 | 963.3 |
| 20260505075944 | 61 | 306 | 0.0 | 1.0 | 0.00 | 0.00 | 0.00 | 70 | 963.4 |
| 20260505075445 | 61 | 296 | 0.0 | 2.0 | 0.00 | 0.00 | 0.00 | 70 | 963.4 |
| 20260505074945 | 61 | 296 | 0.0 | 2.0 | 0.00 | 0.00 | 0.00 | 70 | 963.4 |
| 20260505074439 | 61 | 277 | 0.0 | 3.0 | 0.00 | 0.00 | 0.00 | 70 | 963.5 |
| 20260505073941 | 61 | 151 | 0.0 | 3.0 | 0.00 | 0.00 | 0.00 | 70 | 963.3 |
| 20260505073439 | 62 | 167 | 0.0 | 1.0 | 0.00 | 0.00 | 0.00 | 69 | 963.1 |
| 20260505072941 | 62 | 32 | 0.0 | 2.0 | 0.00 | 0.00 | 0.00 | 69 | 963.1 |
| 20260505072437 | 62 | 219 | 0.0 | 3.0 | 0.00 | 0.00 | 0.00 | 69 | 963.0 |
| 20260505071937 | 62 | 171 | 0.0 | 3.0 | 0.00 | 0.00 | 0.00 | 68 | 962.9 |
| 20260505071437 | 62 | 126 | 0.0 | 1.0 | 0.00 | 0.00 | 0.00 | 68 | 962.9 |
| 20260505070937 | 62 | 206 | 0.0 | 2.0 | 0.00 | 0.00 | 0.00 | 68 | 962.9 |
| 20260505070435 | 62 | 217 | 0.0 | 2.0 | 0.00 | 0.00 | 0.00 | 68 | 962.8 |
| 20260505065938 | 62 | 257 | 0.0 | 3.0 | 0.00 | 0.00 | 0.00 | 68 | 962.8 |
| 20260505065433 | 63 | 322 | 0.0 | 4.0 | 0.00 | 0.00 | 0.00 | 67 | 962.9 |
| 20260505064928 | 63 | 209 | 0.0 | 5.0 | 0.00 | 0.00 | 0.00 | 67 | 962.9 |
| 20260505064427 | 62 | 224 | 0.0 | 5.0 | 0.00 | 0.00 | 0.00 | 68 | 962.9 |
| 20260505064150 | 62 | 147 | 0.0 | 2.0 | 0.00 | 0.00 | 0.00 | 68 | 962.9 |
| 20260505063422 | 62 | 190 | 0.0 | 2.0 | 0.00 | 0.00 | 0.00 | 68 | 963.0 |
| 20260505063145 | 62 | 223 | 0.0 | 2.0 | 0.00 | 0.00 | 0.00 | 68 | 963.1 |
| 20260505062412 | 62 | 232 | 0.0 | 2.0 | 0.00 | 0.00 | 0.00 | 68 | 963.1 |
| 20260505061911 | 62 | 343 | 0.0 | 1.0 | 0.00 | 0.00 | 0.00 | 69 | 963.1 |
| 20260505061411 | 62 | 322 | 0.0 | 3.0 | 0.00 | 0.00 | 0.00 | 69 | 963.1 |
| 20260505060911 | 62 | 154 | 0.0 | 3.0 | 0.00 | 0.00 | 0.00 | 68 | 963.1 |
| 20260505060412 | 62 | 194 | 0.0 | 0.0 | 0.00 | 0.00 | 0.00 | 69 | 963.1 |
| 20260505055913 | 62 | 186 | 0.0 | 0.0 | 0.00 | 0.00 | 0.00 | 69 | 963.1 |
| 20260505055410 | 62 | 203 | 0.0 | 0.0 | 0.00 | 0.00 | 0.00 | 69 | 963.1 |
| 20260505054909 | 62 | 205 | 0.0 | 0.0 | 0.00 | 0.00 | 0.00 | 69 | 963.2 |
| 20260505054854 | 61 | 215 | 0.0 | 2.0 | 0.00 | 0.00 | 0.00 | 70 | 963.2 |
| 20260505053908 | 61 | 178 | 0.0 | 2.0 | 0.00 | 0.00 | 0.00 | 70 | 963.3 |
| 20260505053408 | 61 | 147 | 0.0 | 2.0 | 0.00 | 0.00 | 0.00 | 71 | 963.3 |
| 20260505052908 | 61 | 188 | 0.0 | 0.0 | 0.00 | 0.00 | 0.00 | 70 | 963.4 |
| 20260505052408 | 61 | 188 | 0.0 | 0.0 | 0.00 | 0.00 | 0.00 | 70 | 963.4 |
| 20260505051906 | 62 | 192 | 0.0 | 0.0 | 0.00 | 0.00 | 0.00 | 70 | 963.4 |
| 20260505051403 | 62 | 193 | 0.0 | 0.0 | 0.00 | 0.00 | 0.00 | 70 | 963.5 |
| 20260505050903 | 62 | 248 | 0.0 | 0.0 | 0.00 | 0.00 | 0.00 | 71 | 963.5 |
| 20260505050404 | 62 | 246 | 0.0 | 0.0 | 0.00 | 0.00 | 0.00 | 70 | 963.5 |
| 20260505041311 | 61 | 158 | 0.0 | 0.0 | 0.00 | 0.00 | 0.00 | 72 | 963.5 |
| 20260505040807 | 61 | 158 | 0.0 | 0.0 | 0.00 | 0.00 | 0.00 | 72 | 963.5 |
| 20260505040307 | 61 | 147 | 0.0 | 0.0 | 0.00 | 0.00 | 0.00 | 72 | 963.5 |
| 20260505040033 | 61 | 147 | 0.0 | 0.0 | 0.00 | 0.00 | 0.00 | 71 | 963.5 |
| 20260505035307 | 62 | 121 | 0.0 | 3.0 | 0.00 | 0.00 | 0.00 | 71 | 963.5 |
| 20260505034809 | 61 | 64 | 0.0 | 4.0 | 0.00 | 0.00 | 0.00 | 71 | 963.5 |
| 20260505034303 | 61 | 233 | 0.0 | 3.0 | 0.00 | 0.00 | 0.00 | 73 | 963.5 |
| 20260505033757 | 61 | 139 | 0.0 | 0.0 | 0.00 | 0.00 | 0.00 | 73 | 963.4 |
| 20260505033513 | 60 | 205 | 0.0 | 0.0 | 0.00 | 0.00 | 0.00 | 74 | 963.3 |
| 20260505032745 | 59 | 235 | 0.0 | 0.0 | 0.00 | 0.00 | 0.00 | 76 | 963.3 |
| 20260505032238 | 59 | 236 | 0.0 | 0.0 | 0.00 | 0.00 | 0.00 | 75 | 963.3 |
| 20260505031955 | 59 | 236 | 0.0 | 0.0 | 0.00 | 0.00 | 0.00 | 76 | 963.3 |
| 20260505031227 | 59 | 236 | 0.0 | 0.0 | 0.00 | 0.00 | 0.00 | 76 | 963.2 |
| 20260505030721 | 59 | 236 | 0.0 | 0.0 | 0.00 | 0.00 | 0.00 | 76 | 963.3 |
| 20260505030214 | 59 | 236 | 0.0 | 0.0 | 0.00 | 0.00 | 0.00 | 77 | 963.3 |
| 20260505025709 | 59 | 236 | 0.0 | 0.0 | 0.00 | 0.00 | 0.00 | 77 | 963.3 |
| 20260505025202 | 58 | 236 | 0.0 | 0.0 | 0.00 | 0.00 | 0.00 | 78 | 963.3 |
| 20260505024657 | 58 | 235 | 0.0 | 0.0 | 0.00 | 0.00 | 0.00 | 79 | 963.3 |
| 20260505024151 | 57 | 235 | 0.0 | 0.0 | 0.00 | 0.00 | 0.00 | 81 | 963.4 |
| 20260505023645 | 57 | 235 | 0.0 | 0.0 | 0.00 | 0.00 | 0.00 | 83 | 963.5 |
| 20260505023356 | 57 | 235 | 0.0 | 0.0 | 0.00 | 0.00 | 0.00 | 84 | 963.5 |
| 20260505022633 | 58 | 235 | 0.0 | 0.0 | 0.00 | 0.00 | 0.00 | 83 | 963.3 |
| 20260505022126 | 58 | 235 | 0.0 | 0.0 | 0.00 | 0.00 | 0.00 | 82 | 963.3 |
| 20260505021625 | 58 | 235 | 0.0 | 0.0 | 0.00 | 0.00 | 0.00 | 81 | 963.3 |
| 20260505021343 | 59 | 235 | 0.0 | 0.0 | 0.00 | 0.00 | 0.00 | 81 | 963.4 |
| 20260505020621 | 59 | 235 | 0.0 | 0.0 | 0.00 | 0.00 | 0.00 | 80 | 963.3 |
| 20260505020123 | 60 | 235 | 0.0 | 0.0 | 0.00 | 0.00 | 0.00 | 79 | 963.3 |
| 20260505015620 | 60 | 235 | 0.0 | 0.0 | 0.00 | 0.00 | 0.00 | 78 | 963.5 |
| 20260505015119 | 61 | 235 | 0.0 | 0.0 | 0.00 | 0.00 | 0.00 | 77 | 963.5 |
| 20260505014839 | 62 | 235 | 0.0 | 0.0 | 0.00 | 0.00 | 0.00 | 77 | 963.5 |
| 20260505014119 | 62 | 235 | 0.0 | 0.0 | 0.00 | 0.00 | 0.00 | 75 | 963.4 |
| 20260505013621 | 63 | 235 | 0.0 | 1.0 | 0.00 | 0.00 | 0.00 | 73 | 963.2 |
| 20260505013118 | 64 | 236 | 0.0 | 3.0 | 0.00 | 0.00 | 0.00 | 70 | 963.2 |
| 20260505012616 | 65 | 180 | 1.0 | 10.0 | 0.00 | 0.00 | 0.00 | 68 | 963.2 |
| 20260505012115 | 66 | 213 | 1.0 | 10.0 | 0.00 | 0.00 | 0.00 | 61 | 963.5 |
| 20260505011615 | 65 | 293 | 0.0 | 3.0 | 0.00 | 0.00 | 0.00 | 58 | 963.5 |
| 20260505011115 | 65 | 220 | 0.0 | 0.0 | 0.00 | 0.00 | 0.00 | 59 | 963.2 |
| 20260505010616 | 65 | 220 | 0.0 | 0.0 | 0.00 | 0.00 | 0.00 | 60 | 963.1 |
| 20260505010113 | 65 | 216 | 0.0 | 0.0 | 0.00 | 0.00 | 0.00 | 58 | 962.9 |
| 20260505005612 | 65 | 216 | 0.0 | 0.0 | 0.00 | 0.00 | 0.00 | 58 | 962.9 |
| 20260505005110 | 65 | 267 | 0.0 | 0.0 | 0.00 | 0.00 | 0.00 | 57 | 962.9 |
| 20260505004608 | 66 | 267 | 0.0 | 0.0 | 0.00 | 0.00 | 0.00 | 56 | 962.9 |
| 20260505004102 | 66 | 267 | 0.0 | 0.0 | 0.00 | 0.00 | 0.00 | 55 | 962.9 |
| 20260505003828 | 67 | 267 | 0.0 | 0.0 | 0.00 | 0.00 | 0.00 | 54 | 962.8 |
| 20260505003050 | 67 | 267 | 0.0 | 0.0 | 0.00 | 0.00 | 0.00 | 54 | 962.8 |
| 20260505003040 | 67 | 267 | 0.0 | 0.0 | 0.00 | 0.00 | 0.00 | 54 | 962.8 |
| 20260505002256 | 67 | 266 | 0.0 | 1.0 | 0.00 | 0.00 | 0.00 | 53 | 962.7 |
| 20260505001532 | 67 | 306 | 0.0 | 1.0 | 0.00 | 0.00 | 0.00 | 54 | 962.7 |
| 20260505001026 | 68 | 288 | 0.0 | 0.0 | 0.00 | 0.00 | 0.00 | 52 | 962.6 |
| 20260505000520 | 68 | 239 | 0.0 | 1.0 | 0.00 | 0.00 | 0.00 | 53 | 962.6 |
| 20260505000014 | 69 | 273 | 0.0 | 3.0 | 0.00 | 0.00 | 0.00 | 52 | 962.5 |
| 20260504235508 | 69 | 261 | 0.0 | 3.0 | 0.00 | 0.00 | 0.00 | 52 | 962.4 |
| 20260504235002 | 70 | 210 | 0.0 | 2.0 | 0.00 | 0.00 | 0.00 | 51 | 962.4 |
| 20260504234456 | 70 | 297 | 0.0 | 3.0 | 0.00 | 0.00 | 0.00 | 50 | 962.3 |
| 20260504233950 | 71 | 216 | 0.0 | 3.0 | 0.00 | 0.00 | 0.00 | 49 | 962.3 |
| 20260504233443 | 71 | 203 | 0.0 | 2.0 | 0.00 | 0.00 | 0.00 | 48 | 962.2 |
| 20260504232938 | 71 | 202 | 0.0 | 3.0 | 0.00 | 0.00 | 0.00 | 50 | 962.2 |
| 20260504232700 | 72 | 217 | 0.0 | 3.0 | 0.00 | 0.00 | 0.00 | 49 | 962.1 |
| 20260504231935 | 72 | 196 | 0.0 | 3.0 | 0.00 | 0.00 | 0.00 | 47 | 962.1 |
| 20260504231434 | 74 | 210 | 0.0 | 4.0 | 0.00 | 0.00 | 0.00 | 46 | 962.0 |
| 20260504230938 | 74 | 227 | 1.0 | 4.0 | 0.00 | 0.00 | 0.00 | 46 | 962.0 |